KR8N Weather Reports


time (UTC)temp
C
wind
direction
speed
KPH
gust
KPH
rain 1hr
cm
rain 24hr
cm
rain mn
cm
humidity
%
barometer
mb
20260510142831 21 278 6.4 6.4 0.00 0.00 0.00 54 1019.3
20260510142327 20 119 3.2 3.2 0.00 0.00 0.00 61 1019.4
20260510141824 20 131 3.2 3.2 0.00 0.00 0.00 58 1019.3
20260510141321 20 123 3.2 3.2 0.00 0.00 0.00 62 1019.1
20260510140819 19 131 3.2 3.2 0.00 0.00 0.00 61 1019.1
20260510140315 19 115 1.6 1.6 0.00 0.00 0.00 62 1019.1
20260510135813 18 119 3.2 3.2 0.00 0.00 0.00 65 1019.2
20260510135309 18 147 3.2 3.2 0.00 0.00 0.00 67 1019.2
20260510134807 18 159 4.8 4.8 0.00 0.00 0.00 67 1019.3
20260510134304 18 118 4.8 6.4 0.00 0.00 0.00 66 1019.3
20260510133800 17 126 1.6 1.6 0.00 0.00 0.00 66 1019.1
20260510133256 17 163 3.2 4.8 0.00 0.00 0.00 68 1019.2
20260510132751 17 118 1.6 1.6 0.00 0.00 0.00 68 1019.2
20260510132250 17 121 1.6 1.6 0.00 0.00 0.00 68 1019.3
20260510131746 16 132 3.2 3.2 0.00 0.00 0.00 67 1019.1
20260510131245 16 121 1.6 1.6 0.00 0.00 0.00 71 1019.2
20260510130740 15 122 3.2 3.2 0.00 0.00 0.00 72 1019.4
20260510130238 15 162 6.4 6.4 0.00 0.00 0.00 72 1019.3
20260510125734 15 147 3.2 3.2 0.00 0.00 0.00 71 1019.2
20260510125230 16 155 6.4 9.7 0.00 0.00 0.00 71 1019.2
20260510124727 15 123 1.6 1.6 0.00 0.00 0.00 74 1019.4
20260510124225 15 134 3.2 3.2 0.00 0.00 0.00 75 1019.4
20260510123719 15 145 3.2 3.2 0.00 0.00 0.00 76 1019.1
20260510123215 14 130 3.2 3.2 0.00 0.00 0.00 76 1019.2
20260510122712 14 120 1.6 1.6 0.00 0.00 0.00 78 1019.3
20260510122209 14 150 3.2 4.8 0.00 0.00 0.00 76 1019.2
20260510121705 13 160 3.2 3.2 0.00 0.00 0.00 78 1019.2
20260510121203 13 123 3.2 3.2 0.00 0.00 0.00 80 1019.1
20260510120700 13 152 3.2 3.2 0.00 0.00 0.00 81 1019.0
20260510120156 12 148 1.6 1.6 0.00 0.00 0.00 83 1019.0
20260510115652 12 126 3.2 3.2 0.00 0.00 0.00 84 1018.9
20260510115150 12 117 0.0 0.0 0.00 0.00 0.00 85 1018.9
20260510114645 12 114 0.0 0.0 0.00 0.00 0.00 88 1018.9
20260510114142 11 120 1.6 1.6 0.00 0.00 0.00 92 1018.9
20260510113637 11 119 0.0 0.0 0.00 0.00 0.00 95 1018.6
20260510113134 10 127 1.6 1.6 0.00 0.00 0.00 97 1018.4
20260510112631 10 119 1.6 1.6 0.00 0.00 0.00 97 1018.6
20260510112128 10 119 0.0 0.0 0.00 0.00 0.00 97 1018.6
20260510111624 9 119 1.6 1.6 0.00 0.00 0.00 97 1018.4
20260510111120 8 117 0.0 0.0 0.00 0.00 0.00 97 1018.3
20260510110616 8 117 1.6 1.6 0.00 0.00 0.00 97 1018.2
20260510110113 8 117 0.0 1.6 0.00 0.00 0.00 97 1018.3
20260510105609 8 117 0.0 0.0 0.00 0.00 0.00 97 1018.0
20260510105103 7 111 0.0 0.0 0.00 0.00 0.00 97 1018.2
20260510104600 7 106 0.0 0.0 0.00 0.00 0.00 97 1018.2
20260510104057 7 104 0.0 0.0 0.00 0.00 0.00 97 1017.9
20260510103554 7 105 0.0 0.0 0.00 0.00 0.00 97 1018.0
20260510103050 7 101 0.0 0.0 0.00 0.00 0.00 97 1017.8
20260510102545 6 101 1.6 1.6 0.00 0.00 0.00 97 1017.8
20260510102041 6 55 0.0 0.0 0.00 0.00 0.00 97 1017.5
20260510101539 6 55 0.0 0.0 0.00 0.00 0.00 97 1017.6
20260510101038 6 55 0.0 0.0 0.00 0.00 0.00 97 1017.5
20260510100533 6 55 0.0 0.0 0.00 0.00 0.00 97 1017.5
20260510100031 6 55 0.0 0.0 0.00 0.00 0.00 97 1017.5
20260510095527 6 55 0.0 0.0 0.00 0.00 0.00 97 1017.5
20260510095026 6 50 0.0 0.0 0.00 0.00 0.00 97 1017.3
20260510094521 6 57 0.0 0.0 0.00 0.00 0.00 97 1017.3
20260510094017 6 57 1.6 1.6 0.00 0.00 0.00 97 1017.2
20260510093512 7 58 0.0 0.0 0.00 0.00 0.00 97 1017.2
20260510093009 7 58 0.0 0.0 0.00 0.00 0.00 97 1017.1
20260510092507 6 58 0.0 0.0 0.00 0.00 0.00 97 1017.3
20260510092006 6 58 0.0 0.0 0.00 0.00 0.00 97 1017.1
20260510091503 6 58 0.0 0.0 0.00 0.00 0.00 97 1017.1
20260510090959 7 58 0.0 0.0 0.00 0.00 0.00 97 1017.0
20260510090456 7 58 0.0 0.0 0.00 0.00 0.00 97 1016.9
20260510085951 7 58 0.0 0.0 0.00 0.00 0.00 97 1016.9
20260510085447 7 58 0.0 0.0 0.00 0.00 0.00 96 1016.7
20260510084943 7 58 0.0 0.0 0.00 0.00 0.00 97 1016.8
20260510084440 7 57 0.0 0.0 0.00 0.00 0.00 96 1016.8
20260510083936 6 57 0.0 0.0 0.00 0.00 0.00 96 1016.7
20260510083433 6 57 0.0 0.0 0.00 0.00 0.00 96 1016.8
20260510082928 7 57 0.0 0.0 0.00 0.00 0.00 96 1016.8
20260510082427 6 57 0.0 0.0 0.00 0.00 0.00 96 1016.8
20260510081925 7 57 0.0 0.0 0.00 0.00 0.00 96 1016.8
20260510081421 7 57 0.0 0.0 0.00 0.00 0.00 96 1016.6
20260510080918 7 57 0.0 0.0 0.00 0.00 0.00 96 1016.7
20260510080417 7 57 0.0 0.0 0.00 0.00 0.00 96 1016.9
20260510075914 7 57 0.0 0.0 0.00 0.00 0.00 96 1016.6
20260510075412 7 57 0.0 0.0 0.00 0.00 0.00 96 1016.7
20260510074908 7 57 0.0 0.0 0.00 0.00 0.00 96 1016.7
20260510074405 6 56 0.0 0.0 0.00 0.00 0.00 96 1016.7
20260510073902 7 56 0.0 0.0 0.00 0.00 0.00 96 1016.7
20260510073357 7 56 0.0 0.0 0.00 0.00 0.00 95 1016.7
20260510072854 7 56 0.0 0.0 0.00 0.00 0.00 95 1016.6
20260510072351 7 56 0.0 0.0 0.00 0.00 0.00 95 1016.7
20260510071847 6 56 0.0 0.0 0.00 0.00 0.00 95 1016.6
20260510071343 7 56 0.0 0.0 0.00 0.00 0.00 95 1016.6
20260510070842 7 56 0.0 0.0 0.00 0.00 0.00 95 1016.4
20260510070338 7 56 0.0 0.0 0.00 0.00 0.00 95 1016.3
20260510065833 7 56 0.0 0.0 0.00 0.00 0.00 95 1016.3
20260510065330 7 56 0.0 0.0 0.00 0.00 0.00 95 1016.3
20260510064827 7 56 0.0 0.0 0.00 0.00 0.00 94 1016.2
20260510064325 7 56 0.0 0.0 0.00 0.00 0.00 94 1016.2
20260510063821 7 55 0.0 0.0 0.00 0.00 0.00 94 1016.4
20260510063317 8 54 0.0 0.0 0.00 0.00 0.00 94 1016.3
20260510062814 7 69 0.0 0.0 0.00 0.00 0.00 94 1016.2
20260510062309 7 60 0.0 0.0 0.00 0.00 0.00 93 1016.3
20260510061805 8 61 0.0 0.0 0.00 0.00 0.00 93 1016.3
20260510061302 8 58 0.0 0.0 0.00 0.00 0.00 93 1016.4
20260510060758 8 98 0.0 0.0 0.00 0.00 0.00 93 1016.3
20260510060255 8 99 0.0 0.0 0.00 0.00 0.00 93 1016.3
20260510055752 8 105 0.0 0.0 0.00 0.00 0.00 92 1016.3
20260510055250 8 70 0.0 0.0 0.00 0.00 0.00 92 1016.6
20260510054750 8 86 0.0 0.0 0.00 0.00 0.00 92 1016.6
20260510054246 8 156 3.2 3.2 0.00 0.00 0.00 92 1016.4
20260510053746 8 40 1.6 1.6 0.00 0.00 0.00 93 1016.4
20260510053242 8 135 1.6 1.6 0.00 0.00 0.00 93 1016.6
20260510052738 8 118 1.6 1.6 0.00 0.00 0.00 91 1016.3
20260510052234 8 117 0.0 0.0 0.00 0.00 0.00 91 1016.4
20260510051730 8 118 0.0 0.0 0.00 0.00 0.00 90 1016.6
20260510051227 9 118 0.0 0.0 0.00 0.00 0.00 91 1016.4
20260510050724 9 118 0.0 0.0 0.00 0.00 0.00 91 1016.4
20260510050221 9 118 1.6 0.0 0.00 0.00 0.00 90 1016.3
20260510045718 9 118 0.0 0.0 0.00 0.00 0.00 90 1016.6
20260510045214 9 118 1.6 0.0 0.00 0.00 0.00 89 1016.3
20260510044710 9 117 0.0 0.0 0.00 0.00 0.00 89 1016.4
20260510044209 10 117 0.0 0.0 0.00 0.00 0.00 88 1016.6
20260510043704 10 117 0.0 0.0 0.00 0.00 0.00 88 1016.4
20260510043201 10 118 0.0 0.0 0.00 0.00 0.00 88 1016.7
20260510042658 10 118 1.6 1.6 0.00 0.00 0.00 87 1016.7
20260510042154 10 118 0.0 0.0 0.00 0.00 0.00 86 1016.6
20260510041651 10 118 0.0 0.0 0.00 0.00 0.00 86 1016.4
20260510041148 10 119 1.6 1.6 0.00 0.00 0.00 87 1016.3
20260510040645 10 119 1.6 1.6 0.00 0.00 0.00 87 1016.4
20260510040142 10 116 1.6 1.6 0.00 0.00 0.00 87 1016.2
20260510035637 10 116 1.6 1.6 0.00 0.00 0.00 87 1016.3
20260510035133 10 115 0.0 0.0 0.00 0.00 0.00 86 1016.4
20260510034630 10 115 0.0 0.0 0.00 0.00 0.00 87 1016.6
20260510034127 10 116 1.6 1.6 0.00 0.00 0.00 87 1016.1
20260510033623 10 102 0.0 0.0 0.00 0.00 0.00 88 1016.1
20260510033121 10 102 1.6 1.6 0.00 0.00 0.00 88 1016.2
20260510032617 10 102 0.0 0.0 0.00 0.00 0.00 87 1016.3
20260510032113 10 102 0.0 0.0 0.00 0.00 0.00 86 1016.2
20260510031608 10 102 0.0 0.0 0.00 0.00 0.00 85 1016.4
20260510031104 10 102 0.0 0.0 0.00 0.00 0.00 84 1016.3
20260510030559 10 102 1.6 1.6 0.00 0.00 0.00 84 1016.3
20260510030057 11 102 0.0 0.0 0.00 0.00 0.00 83 1016.6
20260510025554 11 103 0.0 0.0 0.00 0.00 0.00 83 1016.6
20260510025052 11 100 0.0 0.0 0.00 0.00 0.00 83 1016.2
20260510024548 11 91 0.0 0.0 0.00 0.00 0.00 83 1016.0
20260510024044 11 91 0.0 0.0 0.00 0.00 0.00 83 1016.2
20260510023541 11 90 0.0 0.0 0.00 0.00 0.00 82 1016.2
20260510023039 11 90 0.0 0.0 0.00 0.00 0.00 80 1016.0
20260510022538 11 90 0.0 0.0 0.00 0.00 0.00 79 1016.0
20260510022038 11 90 0.0 0.0 0.00 0.00 0.00 79 1015.9
20260510021535 12 90 0.0 0.0 0.00 0.00 0.00 78 1015.9
20260510021033 12 90 0.0 0.0 0.00 0.00 0.00 78 1015.8
20260510020526 12 90 0.0 0.0 0.00 0.00 0.00 78 1015.9
20260510020022 12 90 0.0 0.0 0.00 0.00 0.00 77 1015.8
20260510015518 12 90 0.0 0.0 0.00 0.00 0.00 76 1015.9
20260510015014 12 90 0.0 0.0 0.00 0.00 0.00 75 1015.6
20260510014511 12 90 0.0 0.0 0.00 0.00 0.00 75 1015.3
20260510014008 12 90 0.0 0.0 0.00 0.00 0.00 74 1015.4
20260510013502 13 90 0.0 0.0 0.00 0.00 0.00 74 1015.4
20260510012958 13 90 0.0 0.0 0.00 0.00 0.00 72 1015.2
20260510012453 13 89 0.0 0.0 0.00 0.00 0.00 72 1015.1
20260510011948 13 89 0.0 0.0 0.00 0.00 0.00 71 1015.1
20260510011443 13 89 0.0 0.0 0.00 0.00 0.00 70 1015.0
20260510010940 13 87 1.6 1.6 0.00 0.00 0.00 71 1014.9
20260510010437 13 85 0.0 0.0 0.00 0.00 0.00 72 1014.7
20260510005934 13 85 0.0 0.0 0.00 0.00 0.00 71 1015.2
20260510005430 13 85 0.0 0.0 0.00 0.00 0.00 70 1014.9
20260510004927 13 85 0.0 0.0 0.00 0.00 0.00 69 1014.9
20260510004424 13 85 0.0 0.0 0.00 0.00 0.00 68 1014.7
20260510003922 14 85 0.0 0.0 0.00 0.00 0.00 67 1014.5
20260510003419 15 85 0.0 0.0 0.00 0.00 0.00 66 1014.6
20260510002918 15 85 0.0 0.0 0.00 0.00 0.00 64 1014.4
20260510002416 15 85 0.0 0.0 0.00 0.00 0.00 63 1014.4
20260510001912 16 83 0.0 0.0 0.00 0.00 0.00 62 1014.3
20260510001410 16 82 0.0 0.0 0.00 0.00 0.00 61 1014.3
20260510000906 16 79 0.0 0.0 0.00 0.00 0.00 60 1014.2
20260510000404 16 111 1.6 1.6 0.00 0.00 0.00 60 1014.2
20260509235859 17 59 0.0 0.0 0.00 0.00 0.00 59 1014.1
20260509235356 17 90 0.0 0.0 0.00 0.00 0.00 57 1014.0
20260509234852 17 66 0.0 0.0 0.00 0.00 0.00 55 1014.3
20260509234350 18 93 0.0 0.0 0.00 0.00 0.00 54 1014.1
20260509233848 18 261 0.0 0.0 0.00 0.00 0.00 53 1014.0
20260509233345 18 280 1.6 3.2 0.00 0.00 0.00 50 1014.0
20260509232840 19 82 0.0 1.6 0.00 0.00 0.00 52 1013.9
20260509232339 19 5 3.2 3.2 0.00 0.00 0.00 50 1014.0
20260509231834 19 50 1.6 1.6 0.00 0.00 0.00 51 1014.0
20260509231331 19 319 3.2 3.2 0.00 0.00 0.00 50 1014.0
20260509230829 19 286 4.8 4.8 0.00 0.00 0.00 49 1013.8
20260509230326 19 90 1.6 1.6 0.00 0.00 0.00 50 1013.8
20260509225821 19 336 3.2 3.2 0.00 0.00 0.00 49 1013.9
20260509225318 19 58 1.6 1.6 0.00 0.00 0.00 51 1013.9
20260509224814 18 301 4.8 4.8 0.00 0.00 0.00 52 1014.0
20260509224310 20 298 6.4 6.4 0.00 0.00 0.00 48 1013.8
20260509223807 20 121 3.2 1.6 0.00 0.00 0.00 47 1013.9
20260509223304 19 66 0.0 0.0 0.00 0.00 0.00 50 1014.0
20260509222801 18 88 1.6 1.6 0.00 0.00 0.00 50 1014.0
20260509222256 19 339 3.2 4.8 0.00 0.00 0.00 49 1014.2
20260509221753 19 57 1.6 1.6 0.00 0.00 0.00 49 1014.1
20260509221249 19 69 0.0 0.0 0.00 0.00 0.00 50 1014.3
20260509220745 18 44 1.6 3.2 0.00 0.00 0.00 50 1014.1
20260509220241 18 109 1.6 1.6 0.00 0.00 0.00 49 1014.3
20260509215737 18 10 3.2 3.2 0.00 0.00 0.00 52 1014.2
20260509215234 18 31 1.6 1.6 0.00 0.00 0.00 51 1014.2
20260509214731 18 294 6.4 4.8 0.00 0.00 0.00 49 1014.3
20260509214228 18 295 4.8 4.8 0.00 0.00 0.00 48 1014.2
20260509213725 18 39 3.2 4.8 0.00 0.00 0.00 48 1014.2
20260509213220 18 255 8.0 9.7 0.00 0.00 0.00 48 1014.1
20260509212718 18 44 1.6 1.6 0.00 0.00 0.00 49 1014.2
20260509212215 19 292 6.4 9.7 0.00 0.00 0.00 44 1014.0
20260509211711 20 115 1.6 1.6 0.00 0.00 0.00 45 1014.2
20260509211208 19 271 8.0 9.7 0.00 0.00 0.00 44 1014.1
20260509210704 18 99 1.6 1.6 0.00 0.00 0.00 48 1014.0
20260509210201 19 298 3.2 3.2 0.00 0.00 0.00 46 1013.9
20260509205701 19 252 6.4 6.4 0.00 0.00 0.00 44 1013.8
20260509205201 19 275 8.0 9.7 0.00 0.00 0.00 43 1013.9
20260509204657 19 353 3.2 4.8 0.00 0.00 0.00 46 1013.8
20260509204154 19 114 1.6 1.6 0.00 0.00 0.00 49 1013.7
20260509203649 19 334 4.8 4.8 0.00 0.00 0.00 44 1013.9
20260509203148 19 177 3.2 3.2 0.00 0.00 0.00 48 1013.5
20260509202643 20 288 3.2 4.8 0.00 0.00 0.00 44 1013.7
20260509202138 20 304 9.7 12.9 0.00 0.00 0.00 42 1013.6
20260509201628 19 71 0.0 0.0 0.00 0.00 0.00 43 1013.6
20260509201126 20 352 3.2 3.2 0.00 0.00 0.00 43 1013.5
20260509200621 19 357 3.2 3.2 0.00 0.00 0.00 44 1013.5
20260509200117 19 57 3.2 3.2 0.00 0.00 0.00 45 1013.4
20260509195612 18 283 6.4 6.4 0.00 0.00 0.00 43 1013.6
20260509195107 19 268 9.7 11.3 0.00 0.00 0.00 42 1013.4
20260509194606 19 52 0.0 0.0 0.00 0.00 0.00 45 1013.5
20260509194105 20 269 8.0 9.7 0.00 0.00 0.00 42 1013.6
20260509193600 19 286 6.4 11.3 0.00 0.00 0.00 40 1013.5
20260509193056 19 113 1.6 1.6 0.00 0.00 0.00 44 1013.5
20260509192553 19 296 4.8 4.8 0.00 0.00 0.00 42 1013.4
20260509192043 20 255 9.7 11.3 0.00 0.00 0.00 40 1013.3
20260509191542 18 28 4.8 4.8 0.00 0.00 0.00 46 1013.4
20260509191039 18 123 3.2 3.2 0.00 0.00 0.00 46 1013.6
20260509190536 18 131 3.2 3.2 0.00 0.00 0.00 45 1013.5
20260509190034 19 285 6.4 6.4 0.00 0.00 0.00 44 1013.6
20260509185531 20 119 3.2 3.2 0.00 0.00 0.00 44 1013.6
20260509185027 21 25 4.8 4.8 0.00 0.00 0.00 41 1013.5
20260509184525 21 79 1.6 3.2 0.00 0.00 0.00 42 1013.6
20260509184021 20 92 1.6 1.6 0.00 0.00 0.00 43 1013.4
20260509183516 19 56 1.6 1.6 0.00 0.00 0.00 47 1013.5
20260509183013 20 274 9.7 12.9 0.00 0.00 0.00 43 1013.3
20260509182509 20 281 6.4 4.8 0.00 0.00 0.00 44 1013.6
20260509182006 20 184 3.2 4.8 0.00 0.00 0.00 50 1013.5
20260509181505 20 312 9.7 12.9 0.00 0.00 0.00 42 1013.4
20260509181002 18 152 4.8 4.8 0.00 0.00 0.00 46 1013.6
20260509180457 18 2 3.2 3.2 0.00 0.00 0.00 52 1013.5
20260509175954 18 292 3.2 3.2 0.00 0.00 0.00 48 1013.6
20260509175450 18 137 3.2 3.2 0.00 0.00 0.00 46 1013.6
20260509174948 17 34 1.6 1.6 0.00 0.00 0.00 54 1013.7
20260509174444 17 294 11.3 16.1 0.00 0.00 0.00 47 1013.7
20260509173939 18 271 8.0 11.3 0.00 0.00 0.00 48 1013.8
20260509173438 18 278 4.8 6.4 0.00 0.00 0.00 51 1013.8
20260509172935 17 181 1.6 3.2 0.00 0.00 0.00 50 1013.8
20260509172432 17 304 8.0 11.3 0.00 0.00 0.00 48 1013.7
20260509171928 18 355 3.2 1.6 0.00 0.00 0.00 51 1013.9
20260509171424 17 115 3.2 3.2 0.00 0.00 0.00 49 1013.9
20260509170921 17 218 4.8 4.8 0.00 0.00 0.00 52 1014.0
20260509170416 17 146 3.2 3.2 0.00 0.00 0.00 50 1013.9
20260509165912 17 285 4.8 4.8 0.00 0.00 0.00 51 1014.0
20260509165406 17 49 1.6 1.6 0.00 0.00 0.00 54 1014.2
20260509164902 17 77 1.6 1.6 0.00 0.00 0.00 54 1014.2
20260509164359 17 281 3.2 3.2 0.00 0.00 0.00 56 1014.3
20260509163854 17 104 1.6 3.2 0.00 0.00 0.00 55 1014.0
20260509163352 17 166 4.8 4.8 0.00 0.00 0.00 52 1014.3
20260509162851 17 125 3.2 3.2 0.00 0.00 0.00 53 1014.1
20260509162349 17 279 6.4 9.7 0.00 0.00 0.00 54 1014.2
20260509161846 17 280 6.4 6.4 0.00 0.00 0.00 53 1014.1
20260509161342 17 323 3.2 3.2 0.00 0.00 0.00 53 1014.4
20260509160838 17 50 1.6 1.6 0.00 0.00 0.00 55 1014.1
20260509160334 17 315 8.0 6.4 0.00 0.00 0.00 55 1013.9
20260509155829 17 293 8.0 9.7 0.00 0.00 0.00 52 1013.7
20260509155326 17 262 3.2 4.8 0.00 0.00 0.00 55 1013.9
20260509154822 17 10 0.0 1.6 0.00 0.00 0.00 56 1013.7
20260509154319 16 69 0.0 0.0 0.00 0.00 0.00 55 1013.7
20260509153816 16 107 3.2 3.2 0.00 0.00 0.00 54 1013.9
20260509153313 16 357 3.2 4.8 0.00 0.00 0.00 54 1013.8
20260509152809 16 298 1.6 1.6 0.00 0.00 0.00 56 1013.8
20260509152306 17 125 3.2 3.2 0.00 0.00 0.00 55 1013.9
20260509151803 17 129 3.2 4.8 0.00 0.00 0.00 54 1013.9
20260509151258 17 86 1.6 3.2 0.00 0.00 0.00 55 1014.1
20260509150757 16 71 0.0 0.0 0.00 0.00 0.00 58 1014.1
20260509150255 17 306 8.0 6.4 0.00 0.00 0.00 53 1013.9
20260509145752 17 144 1.6 1.6 0.00 0.00 0.00 55 1013.9
20260509145251 17 285 3.2 4.8 0.00 0.00 0.00 52 1014.1
20260509144748 17 7 3.2 3.2 0.00 0.00 0.00 52 1014.0
20260509144245 17 280 1.6 1.6 0.00 0.00 0.00 54 1013.9
20260509143742 17 121 1.6 1.6 0.00 0.00 0.00 61 1013.9
20260509143240 17 320 3.2 3.2 0.00 0.00 0.00 53 1014.0